This demonstration page uses our WeatherBlox Daily Observations layout. Learn more.

Left ArrowRight Arrow

Hourly Observations for September 26, 2021

Temp ( °F °C ) Dew Point ( °F °C ) Humidity (%) Winds ( mph kmh ) Pressure ( in mb ) Visibility ( mi km ) Precip ( " mm )
12:15 am 00:15 Clear 65 18.2 49 9.5 57 57 S 10 17 29.87 1012 10 16 N/A
12:35 am 00:35 Clear 64 18 49 9.4 57 57 S 12 19 29.86 1011 10 16 N/A
12:55 am 00:55 Clear 64 17.8 49 9.2 57 57 S 12 19 29.86 1011 10 16 N/A
1:15 am 01:15 Clear 64 18 49 9.2 57 57 S 12 19 29.85 1011 10 16 N/A
1:35 am 01:35 Clear 63 17.2 49 9.2 60 60 S 8 13 29.85 1011 10 16 N/A
1:55 am 01:55 Clear 62 16.7 49 9.2 61 61 S 7 11 29.84 1011 10 16 N/A
2:15 am 02:15 Clear 60 15.7 49 9.3 66 66 S 7 11 29.84 1011 10 16 N/A
2:35 am 02:35 Clear 60 15.4 49 9.4 68 68 S 6 9 29.84 1010 10 16 N/A
2:55 am 02:55 Clear 58 14.6 48 9.1 70 70 SSE 6 9 29.83 1010 10 16 N/A
3:15 am 03:15 Clear 58 14.2 48 9 71 71 N N/A 29.83 1010 10 16 N/A
3:35 am 03:35 Clear 58 14.4 47 8.6 68 68 S 6 9 29.82 1010 10 16 N/A
3:55 am 03:55 Clear 57 14.1 47 8.5 69 69 N N/A 29.83 1010 10 16 N/A
4:15 am 04:15 Clear 56 13.5 47 8.1 70 70 S 5 7 29.82 1010 10 16 N/A
4:35 am 04:35 Clear 56 13.5 47 8.2 71 71 S 5 7 29.82 1010 10 16 N/A
4:55 am 04:55 Clear 54 12.2 46 7.6 74 74 N N/A 29.82 1010 10 16 N/A
5:15 am 05:15 Clear 55 12.5 46 8 74 74 S 5 7 29.82 1010 10 16 N/A
5:35 am 05:35 Clear 54 12.3 46 7.8 74 74 SSW 6 9 29.82 1010 10 16 N/A
5:55 am 05:55 Clear 53 11.6 46 7.6 77 77 SW 3 6 29.83 1010 10 16 N/A
6:15 am 06:15 Clear 53 11.9 46 7.8 76 76 SSW 3 6 29.82 1010 10 16 N/A
6:35 am 06:35 Clear 52 11.1 45 7.3 78 78 N N/A 29.82 1010 10 16 N/A
6:55 am 06:55 Clear 52 11.1 46 7.6 79 79 N N/A 29.83 1010 10 16 N/A
7:15 am 07:15 Clear 51 10.3 45 7.4 82 82 N N/A 29.84 1010 10 16 N/A
7:35 am 07:35 Sunny 49 9.4 44 6.9 85 85 N N/A 29.84 1010 10 16 N/A
7:55 am 07:55 Sunny 50 10.1 45 7.4 83 83 N N/A 29.84 1011 10 16 N/A
8:15 am 08:15 Sunny 53 11.7 47 8.5 81 81 N N/A 29.82 1010 10 16 N/A
8:35 am 08:35 Sunny 56 13.3 48 8.9 75 75 N N/A 29.80 1009 10 16 N/A
8:55 am 08:55 Sunny 59 14.9 49 9.7 71 71 N N/A 29.80 1009 10 16 N/A
9:15 am 09:15 Sunny 61 16.2 51 10.8 71 71 N N/A 29.79 1009 10 16 N/A
9:35 am 09:35 Sunny 65 18.1 51 10.3 61 61 SW 5 7 29.77 1008 10 16 N/A
9:55 am 09:55 Sunny 66 19 51 10.7 59 59 SW 6 9 29.78 1008 10 16 N/A
10:15 am 10:15 Sunny 69 20.6 51 10.8 54 54 W 5 7 29.75 1008 10 16 N/A
10:35 am 10:35 Sunny 71 21.7 51 10.6 49 49 W 5 7 29.74 1007 10 16 N/A
10:55 am 10:55 Sunny 74 23.4 52 11.1 46 46 N N/A 29.73 1007 10 16 N/A
11:15 am 11:15 Sunny 77 25.1 52 10.9 41 41 WNW 3 6 29.72 1006 10 16 N/A
11:35 am 11:35 Sunny 80 26.8 52 11 37 37 N N/A 29.70 1006 10 16 N/A
11:55 am 11:55 Sunny 83 28.6 51 10.7 33 33 S 3 6 29.68 1005 10 16 N/A
12:15 pm 12:15 Sunny 87 30.8 51 10.4 28 28 SSW 9 15 29.66 1004 10 16 N/A
12:30 pm 12:30 Sunny 89 31.6 49 9.5 25 25 WSW 10 17 29.66 1004 10 16 N/A
12:55 pm 12:55 Sunny 88 31 52 11 29 29 SW 9 15 29.66 1004 10 16 N/A
1:15 pm 13:15 Sunny 89 31.5 53 11.6 29 29 WSW 9 15 29.65 1004 10 16 N/A
1:35 pm 13:35 Sunny 89 31.5 52 11 28 28 SSW 14 22 29.64 1004 10 16 N/A
1:55 pm 13:55 Sunny 89 31.8 52 10.9 28 28 SSW 13 20 29.63 1004 10 16 N/A
2:15 pm 14:15 Sunny 90 32.1 50 10.1 26 26 SSW 9 15 29.62 1003 10 16 N/A
2:35 pm 14:35 Sunny 91 32.9 50 9.9 24 24 SSW 13 20 29.61 1003 10 16 N/A
2:55 pm 14:55 Sunny 92 33.6 47 8.3 21 21 SSW 10 17 29.59 1002 10 16 N/A
3:15 pm 15:15 Sunny 93 33.7 47 8.4 21 21 SSW 9 15 29.58 1002 10 16 N/A
3:35 pm 15:35 Sunny 93 34.1 47 8.6 21 21 SSW 12 19 29.57 1001 10 16 N/A
3:55 pm 15:55 Sunny 93 34 48 9 21 21 S 13 20 29.57 1001 10 16 N/A
4:15 pm 16:15 Sunny 94 34.3 46 7.8 19 19 SSW 14 22 29.57 1001 10 16 N/A
4:35 pm 16:35 Sunny 94 34.3 46 7.5 19 19 S 13 20 29.57 1001 10 16 N/A
4:55 pm 16:55 Sunny 93 34 46 8 20 20 S 14 22 29.57 1001 10 16 N/A
5:15 pm 17:15 Sunny 93 33.8 47 8.4 21 21 S 10 17 29.56 1001 10 16 N/A
5:35 pm 17:35 Sunny 92 33.6 47 8.3 21 21 S 12 19 29.56 1001 10 16 N/A
5:55 pm 17:55 Sunny 92 33.4 46 7.8 20 20 S 8 13 29.56 1001 10 16 N/A
6:15 pm 18:15 Sunny 91 33 46 7.9 21 21 S 8 13 29.57 1001 10 16 N/A
6:35 pm 18:35 Sunny 90 32.1 48 8.7 23 23 S 5 7 29.57 1001 10 16 N/A
6:55 pm 18:55 Sunny 87 30.3 50 9.9 28 28 N N/A 29.59 1002 10 16 N/A
7:15 pm 19:15 Sunny 83 28.5 50 10.2 32 32 N N/A 29.60 1002 10 16 N/A
7:35 pm 19:35 Clear 80 26.5 51 10.5 37 37 N N/A 29.63 1003 10 16 N/A
7:55 pm 19:55 Clear 77 24.8 52 11.1 42 42 N N/A 29.64 1004 7 11 N/A
8:15 pm 20:15 Clear 74 23.3 53 11.5 48 48 N N/A 29.65 1004 10 16 N/A
8:35 pm 20:35 Clear 70 20.9 55 12.6 59 59 N N/A 29.67 1005 10 16 N/A
8:55 pm 20:55 Clear 67 19.2 55 12.8 67 67 N N/A 29.69 1006 10 16 N/A
9:15 pm 21:15 Clear 67 19.5 55 12.6 65 65 N N/A 29.69 1005 10 16 N/A
9:35 pm 21:35 Clear 66 18.7 55 12.8 69 69 N N/A 29.71 1006 10 16 N/A
9:55 pm 21:55 Clear 67 19.7 53 11.9 61 61 NW 3 6 29.70 1006 10 16 N/A
10:15 pm 22:15 Clear 63 17.1 53 11.5 70 70 N N/A 29.72 1006 7 11 N/A
10:35 pm 22:35 Clear 65 18.4 52 11.3 63 63 N N/A 29.72 1006 10 16 N/A
10:55 pm 22:55 Clear 64 17.6 53 11.6 68 68 N N/A 29.73 1007 10 16 N/A
11:10 pm 23:10 Clear 62 16.4 53 11.5 73 73 N N/A 29.75 1007 10 16 N/A
11:35 pm 23:35 Clear 61 16.2 52 11.2 72 72 N N/A 29.75 1007 10 16 N/A
11:55 pm 23:55 Clear 62 16.9 52 11.3 70 70 N N/A 29.75 1008 10 16 N/A

Powered by AerisWeather